Regional Weather Roundup
Issued by NWS

Home | Current Version | Previous Version | Text Only | Print | Product List | Glossary Off
Versions: 1 2 3 4 5 6 7 8 9 10 11 12 13 14 15 16 17 18 19 20 21 22 23 24 25 26 27 28 29 30 31 32 33 34 35 36 37 38 39 40 41 42 43 44 45 46 47 48 49 50

000
ASUS43 KLOT 231508
RWRIL

ILLINOIS REGIONAL WEATHER ROUNDUP
NATIONAL WEATHER SERVICE CHICAGO/ROMEOVILLE IL
1000 AM CDT SAT JUL 23 2016

NOTE: "FAIR" INDICATES FEW OR NO CLOUDS BELOW 12,000 FEET WITH NO
SIGNIFICANT WEATHER AND/OR OBSTRUCTIONS TO VISIBILITY.

* THESE STATIONS ARE NOT UNDER NWS QUALITY CONTROL. THEY ALSO MAY NOT
  REPORT WEATHER SUCH AS PRECIPITATION OR FOG.

ILZ001-002-007-009-015-016-024-231600-
NORTHWEST ILLINOIS

CITY           SKY/WX    TMP DP  RH WIND       PRES   REMARKS
MOLINE         MOSUNNY   87  78  74 SE8       29.96F HX 100
STERLING*      PTSUNNY   84  79  85 VRB3      29.98S HX  96
SAVANNA*       CLOUDY    82  78  87 S5        29.97S HX  92
$$

ILZ003-004-008-010-011-017-018-231600-
NORTH CENTRAL ILLINOIS

CITY           SKY/WX    TMP DP  RH WIND       PRES   REMARKS
ROCKFORD       PTSUNNY   85  77  77 S5        29.99S HX  95
FREEPORT*      MOSUNNY   83  76  81 SE3       30.00F HX  91
ROCHELLE*      PTSUNNY   84  79  85 S3        30.00R HX  95
DE KALB*       PTSUNNY   85  78  79 S5        30.01R HX  95
$$

ILZ005-006-012>014-019>023-231600-
NORTHEAST ILLINOIS

CITY           SKY/WX    TMP DP  RH WIND       PRES   REMARKS
CHICAGO-OHARE  PTSUNNY   86  75  69 VRB3      29.98S HX  95
CHICAGO-MIDWAY PTSUNNY   87  76  69 CALM      29.98S HX  97
AURORA         MOSUNNY   86  77  74 SE7       29.98F HX  97
LANSING*       PTSUNNY   86  75  68 S3        29.99S HX  94
JOLIET*        MOSUNNY   87  78  75 SE5       29.98F HX 101
WAUKEGAN       PTSUNNY   85  77  77 E6        29.98S HX  95
DUPAGE AIRPORT MOSUNNY   86  76  71 S7        29.98S HX  96
WHEELING       PTSUNNY   87  75  67 E3        29.99S HX  96
MORRIS*        SUNNY     84  78  81 SE3       29.98S HX  95
ROMEOVILLE*    CLOUDY    85  75  71 CALM      29.99S HX  93
NORTHERLY ISL    N/A     82  74  76 SE2         N/A  HX  88
$$

LMZ740>746-231600-
SOUTHERN LAKE MICHIGAN

STATION/POSITION SKY/WX   TEMP    WIND        PRES    VSBY  WAVE
                          AIR SEA DIR/SP/G                  HT/PER
                          (F)     (DEG/KT/KT) (MB)    (MI)  (FT/S)
SOUTHERN BUOY              77 76  190/  2/  2 1014.5F         0
WILMETTE HARBOR            80 74   CALM  /  2   N/A           0
HARRISON CRIB              83      60/  1/  2   N/A
BURNHAM HARBOR             82     120/  2/  6   N/A
CALUMET HARBOR             83      60/  4/  5 1014.7F
BURNS HARBOR               79     270/  4/  5 1015.9F
MICHIGAN CITY              78     210/  6/  7   N/A
MICHIGAN CITY 6N           78 75  200/  4/  4   N/A           0
ST. JOSEPH                 75 75  210/  4/  6 1015.3R         0
$$

ILZ025>027-034>036-040-047-049-050-058-095>099-231600-
WEST-CENTRAL ILLINOIS

CITY           SKY/WX    TMP DP  RH WIND       PRES   REMARKS
QUINCY         SUNNY     85  74  69 S7        29.98S HX  92
GALESBURG*     SUNNY     83  76  79 S5        29.99F HX  92
MACOMB*        MOSUNNY   84  77  80 S5        30.01S HX  93
JACKSONVILLE*  SUNNY     84  75  74 S6        30.00R HX  91
PITTSFIELD*    SUNNY     84  75  74 SE5       30.01S HX  92
$$

ILZ028>032-037-038-041>044-048-051>054-059>061-231600-
CENTRAL ILLINOIS

CITY           SKY/WX    TMP DP  RH WIND       PRES   REMARKS
PONTIAC        SUNNY     85  78  82 S5        30.01R HX  96
BLOOMINGTON    MOSUNNY   83  76  79 S8        30.03S HX  91
DECATUR        SUNNY     84  75  74 S6        30.02S HX  92
PEORIA         SUNNY     84  77  79 S7        30.00R HX  94
LACON*         PTSUNNY   84  77  78 W5        29.98S HX  93
LINCOLN*       MOSUNNY   84  77  79 S6        30.01R HX  94
SPRINGFIELD    SUNNY     85  75  72 SE7       30.01S HX  93
TAYLORVILLE    SUNNY     83  76  80 NE6       30.01F HX  91
$$

ILZ033-039-045-046-055>057-062-063-231600-
EAST-CENTRAL ILLINOIS

CITY           SKY/WX    TMP DP  RH WIND       PRES   REMARKS
CHAMPAIGN      MOSUNNY   83  76  79 SE6       30.02F HX  91
MATTOON        MOSUNNY   82  74  76 S6        30.02S HX  88
PARIS*         CLOUDY    82  77  84 CALM      30.04S HX  90
$$

ILZ079-100>102-231600-
SOUTHWEST ILLINOIS

CITY           SKY/WX    TMP DP  RH WIND       PRES   REMARKS
BELLEVILLE     MOSUNNY   85  80  84 VRB2      29.99S HX  98
CAHOKIA*       SUNNY     86  75  69 S6        29.99F HX  95
SPARTA*        MOSUNNY   83  77  83 S3        30.01F HX  92
$$

ILZ064>066-069>071-074>076-080>082-084>086-088>090-092>094-231600-
SOUTH-CENTRAL ILLINOIS

CITY           SKY/WX    TMP DP  RH WIND       PRES   REMARKS
CARBONDALE     CLOUDY    79  75  87 CALM      30.01S FOG     HX  83
CAIRO*         MOSUNNY   82  77  85 NE3       30.00F HX  90
EFFINGHAM*     MOSUNNY   84  78  82 E5        30.03S HX  95
MARION         CLOUDY    81  79  94 S5        30.02F FOG     HX  89
MT. VERNON     PTSUNNY   88  73  62 S7        30.02S HX  96
CENTRALIA*     MOSUNNY   84  77  81 CALM      30.00F HX  93
SALEM*         PTSUNNY   85  76  75 S5        30.01S HX  94
METROPOLIS*    MOSUNNY   84  76  76 CALM      30.02S HX  92
$$

ILZ067-068-072-073-078-083-087-091-231600-
SOUTHEAST ILLINOIS

CITY           SKY/WX    TMP DP  RH WIND       PRES   REMARKS
LAWRENCEVILLE  PTSUNNY   81  77  88 S3        30.02F FOG     HX  88
FLORA*         PTSUNNY   83  77  82 CALM      30.01F HX  92
FAIRFIELD*     CLOUDY    82  77  85 S3        30.00F HX  90
HARRISBURG*    PTSUNNY   80  78  94 SE3       30.01F HX  86
CARMI*         CLOUDY    80  77  90 CALM      30.01F HX  87
$$

ABBREVIATIONS USED IN REMARKS
   TC - TEMPERATURE IN CELSIUS
  WCI - WIND CHILL INDEX
   HX - HEAT INDEX
  VSB - VISIBILITY
$$





USA.gov is the U.S. government's official web portal to all federal, state and local government web resources and services.